Weather History for TNCM - January, 2012

Change the Weather History Date:

Sunday, January 22, 2012

  Actual Average Record
Temperature  
Mean Temperature 78 °F -  
Max Temperature 81 °F 81 °F - ()
Min Temperature 75 °F 72 °F - ()
Cooling Degree Days 13    
Growing Degree Days 28 (Base 50)    
Moisture  
Dew Point 67 °F    
Average Humidity 67    
Maximum Humidity 74    
Minimum Humidity 55    
Precipitation  
Precipitation 0.00 in 0.06 in - ()
Sea Level Pressure  
Sea Level Pressure 30.03 in    
Wind  
Wind Speed 12 mph ()    
Max Wind Speed 17 mph    
Max Gust Speed -    
Visibility 7.2 miles    
Events Rain    
T = Trace of Precipitation, MM = Missing Value Source: Averaged Metar Reports

Daily Weather History Graph

Daily Weather History Graph

Search for Another Location

Airport or City:

Trip Planner

Search our weather history database for the weather conditions in past years. The results will help you decide how hot, cold, wet, or windy it might be!

Date:

Astronomy

Jan. 22, 2012 Rise Set
Actual Time 6:46 AM AST 6:01 PM AST
Civil Twilight 6:23 AM AST 6:24 PM AST
Nautical Twilight 5:57 AM AST 6:50 PM AST
Astronomical Twilight 5:31 AM AST 7:16 PM AST
Moon 6:00 AM AST (1/22) 5:35 PM AST (1/22)
Length of Visible Light 12h 00m
Length of Day
11h 14m
Waning Crescent, 0% of the Moon is Illuminated
Jan 22
Waning Crescent
Jan 23
New
Jan 31
First Quarter
Feb 7
Full
Feb 14
Last Quarter

Hourly Weather History & Observations

Time (AST) Temp. Heat Index Dew Point Humidity Pressure Visibility Wind Dir Wind Speed Gust Speed Precip Events Conditions
12:00 AM 77.0 °F - 66.2 °F 69% 30.04 in 6.2 mi East 17.3 mph - N/A   Scattered Clouds
1:00 AM 77.0 °F - 66.2 °F 69% 30.04 in 6.2 mi East 13.8 mph - N/A   Partly Cloudy
2:00 AM 76 °F - 66 °F 63% 30.03 in 28 mi East 10.4 mph - -   Partly Cloudy
2:00 AM 75.2 °F - 66.2 °F 73% 30.01 in 6.2 mi East 10.4 mph - N/A   Scattered Clouds
3:00 AM 75.2 °F - 66.2 °F 73% 30.01 in 6.2 mi East 10.4 mph - N/A   Partly Cloudy
4:00 AM 75.2 °F - 66.2 °F 73% 30.01 in 6.2 mi East 10.4 mph - N/A   Partly Cloudy
5:00 AM 76 °F - 67 °F 66% 30.02 in 28 mi East 13.8 mph - -   Partly Cloudy
5:00 AM 75.2 °F - 66.2 °F 73% 30.01 in 6.2 mi East 12.7 mph - N/A   Scattered Clouds
6:00 AM 75.2 °F - 66.2 °F 73% 30.01 in 6.2 mi East 13.8 mph - N/A   Mostly Cloudy
7:00 AM 75.2 °F - 66.2 °F 73% 30.04 in 6.2 mi East 6.9 mph - N/A   Scattered Clouds
8:00 AM 77 °F - 67 °F 64% 30.06 in 44 mi East 10.4 mph - -   Partly Cloudy
8:00 AM 77.0 °F - 66.2 °F 69% 30.06 in 6.2 mi East 10.4 mph - N/A   Scattered Clouds
9:00 AM 78.8 °F - 68.0 °F 69% 30.06 in 6.2 mi East 13.8 mph - N/A   Scattered Clouds
10:00 AM 80.6 °F 83.2 °F 68.0 °F 65% 30.06 in 6.2 mi East 9.2 mph - N/A   Partly Cloudy
11:00 AM 80 °F - 67 °F 55% 30.07 in 37 mi ESE 12.7 mph - -   Partly Cloudy
11:00 AM 80.6 °F 82.7 °F 66.2 °F 61% 30.06 in 6.2 mi ESE 12.7 mph - N/A   Scattered Clouds
12:00 PM 80.6 °F 82.7 °F 66.2 °F 61% 30.04 in 6.2 mi East 11.5 mph - N/A   Scattered Clouds
1:00 PM 80.6 °F 82.7 °F 66.2 °F 61% 30.01 in 6.2 mi East 16.1 mph - N/A   Scattered Clouds
2:00 PM 80 °F - 67 °F 55% 30.00 in 37 mi East 15.0 mph - -   Partly Cloudy
2:00 PM 80.6 °F 82.7 °F 66.2 °F 61% 29.98 in 6.2 mi East 15.0 mph - N/A   Scattered Clouds
3:00 PM 80.6 °F 83.2 °F 68.0 °F 65% 29.98 in 6.2 mi East 13.8 mph - N/A   Mostly Cloudy
4:00 PM 78.8 °F - 68.0 °F 69% 29.98 in 6.2 mi East 12.7 mph - N/A   Mostly Cloudy
5:00 PM 78 °F - 67 °F 60% 30.01 in 25 mi East 15.0 mph - -   Partly Cloudy
5:00 PM 78.8 °F - 66.2 °F 65% 30.01 in 6.2 mi East 15.0 mph - N/A   Scattered Clouds
6:00 PM 77.0 °F - 68.0 °F 74% 30.01 in 6.2 mi East 16.1 mph - N/A   Scattered Clouds
7:00 PM 77.0 °F - 68.0 °F 74% 30.01 in 6.2 mi East 16.1 mph - N/A Rain Light Rain Showers
8:00 PM 77 °F - 66 °F 61% 30.03 in 19 mi East 10.4 mph - - Rain Light Rain Showers
8:00 PM 77.0 °F - 66.2 °F 69% 30.04 in 6.2 mi East 10.4 mph - N/A   Partly Cloudy
9:00 PM 77.0 °F - 66.2 °F 69% 30.04 in 6.2 mi East 13.8 mph - N/A   Scattered Clouds
10:00 PM 77.0 °F - 66.2 °F 69% 30.04 in 6.2 mi East 11.5 mph - N/A   Partly Cloudy
11:00 PM 77 °F - 67 °F 64% 30.04 in 19 mi East 16.1 mph - -   Mostly Cloudy
11:00 PM 77.0 °F - 66.2 °F 69% 30.04 in 6.2 mi East 16.1 mph - N/A   Scattered Clouds